Location: Trout Lake
(45.9980°N, 121.5270°W)
Time: 20:53:25
(UTC-08:00)

Cosmos 2297 Rocket - Pass Details

Date: 06 December 2023
Orbit: 838 x 844 km, 71.0° (Epoch: 22 February)

Event Time Altitude Azimuth Distance (km) Brightness Sun altitude
Rises 17:17:45 0° 260° (W) 3,386 7.2 -9.5°
Reaches altitude 10° 17:21:11 10° 281° (WNW) 2,457 5.6 -10.1°
Maximum altitude 17:24:38 16° 319° (NW) 2,052 4.5 -10.7°
Drops below altitude 10° 17:28:05 10° 357° (N) 2,466 4.4 -11.2°
Enters shadow 17:31:28 - 18° (NNE) 3,378 5.0 -11.8°
